Volver al catálogo

STARLINK-35933

ActivoComunicacionesVLEO
NORAD 66529·PAYLOAD·🇺🇸 United States

Lanzado Nov 19, 2025 desde Cape Canaveral Space Force Station

Loading…

Próximos Pases (próximas 24 horas)

TLE

ActualizadoSource: CelesTrak SupGP

Época: Sep 14, 2026, 21:29 UTC

1 66529C 25265P   26257.89562500  .00004687  00000+0  16977-3 0  2579
2 66529  43.0030 289.7364 0001474 269.3442 182.2902 15.27570685    16

Sigue STARLINK-35933 en tiempo real con AllMySat

Download on the App Store